GEFSNGP_500_meanwind_156.txt.gz
Wind_Speed
29 28 28 27 24 22 24 25 26 25 26 24 23 23 22 22 18 14 14 13 13 13 13 12 11 11 12 13 14 14 14 14 14 14 14 14 14 15 15 15 15 16 16 17
32 31 31 30 29 26 25 25 26 25 25 24 23 22 22 20 18 15 15 15 14 14 13 12 11 12 13 14 15 15 15 15 15 14 14 14 14 15 15 16 16 16 16 16
34 33 34 35 32 30 28 27 26 26 24 25 25 24 23 22 18 16 15 16 16 16 14 14 14 13 14 15 16 16 16 15 14 14 15 15 15 15 15 15 15 15 15 15
36 36 38 35 33 32 30 29 28 27 26 25 25 25 25 22 21 18 17 16 16 17 16 17 16 15 16 16 17 16 16 15 15 15 15 15 15 15 15 15 15 15 15 15
37 38 38 37 35 34 32 32 31 30 28 26 26 25 25 24 22 20 19 18 17 18 18 18 18 17 17 17 17 17 17 16 16 15 16 15 15 15 15 15 15 15 15 15
38 38 39 36 35 35 35 34 32 31 29 28 27 26 24 23 22 21 20 19 19 19 20 20 19 19 18 18 18 18 18 17 17 16 16 15 15 14 15 15 15 15 15 15
39 39 39 36 35 36 36 35 33 33 30 30 27 25 24 24 23 21 20 19 19 20 20 20 20 20 20 20 20 19 19 19 18 18 17 16 15 15 15 16 16 16 17 17
40 39 39 35 35 36 36 35 33 31 29 28 25 25 24 22 22 21 20 19 20 20 19 20 20 20 20 20 21 20 20 19 19 18 17 16 16 16 16 16 16 17 18 18
41 39 36 36 35 35 36 35 33 31 30 28 26 26 23 22 22 23 21 20 20 20 20 20 20 20 21 21 21 20 20 19 19 18 18 18 18 18 18 18 18 18 18 18
40 39 37 36 35 33 33 34 33 31 29 28 27 26 24 23 23 23 21 20 20 21 21 21 21 21 21 21 21 21 20 20 20 19 19 19 19 18 18 18 18 18 18 19
38 37 36 35 34 32 31 31 32 31 29 29 28 26 25 22 22 21 21 21 21 21 22 22 22 22 22 22 21 21 21 20 20 19 19 19 19 19 19 19 20 19 20 20
38 37 35 34 34 32 31 32 33 33 31 29 28 26 24 23 21 21 22 22 22 22 23 23 23 23 22 21 21 21 21 20 20 20 20 19 19 19 19 19 20 20 20 20
35 35 35 33 33 33 32 30 29 29 29 28 27 26 25 24 23 22 23 22 23 23 23 23 23 23 22 22 21 20 20 20 20 20 20 19 19 18 19 20 20 20 20 20
34 34 33 33 30 29 28 28 28 27 26 25 25 25 24 23 23 22 23 23 23 23 23 23 22 22 21 20 19 19 19 19 19 19 19 19 18 18 18 19 19 19 20 21
32 31 30 29 29 28 27 26 26 25 26 24 23 23 23 23 22 22 22 23 23 23 22 22 21 21 20 19 18 18 17 17 18 18 18 18 18 18 18 18 19 20 21 22
30 29 28 27 27 27 26 24 23 23 23 23 23 23 23 22 22 22 22 22 22 21 21 21 20 19 19 18 17 17 17 17 17 17 17 17 17 17 18 18 20 21 22 23
26 25 26 26 25 26 26 23 22 22 23 23 23 23 22 22 22 22 22 21 20 20 19 19 18 17 17 16 16 16 16 16 15 15 15 16 17 18 19 20 21 23 24 25
21 19 20 20 18 19 20 21 21 22 22 21 21 21 21 21 21 21 20 19 18 17 17 17 16 15 15 15 15 15 15 15 15 16 17 18 19 20 21 22 23 23 24 25
21 20 20 20 20 19 19 20 20 20 20 20 20 20 20 20 19 19 18 18 17 16 16 16 15 15 15 15 15 15 15 16 17 18 19 19 20 21 22 22 23 24 25 26
18 18 19 19 18 19 19 19 20 20 20 19 18 18 18 18 18 18 17 16 16 16 16 15 15 15 14 14 14 15 16 16 18 18 19 20 20 21 22 22 23 24 25 25
18 17 17 18 18 18 18 19 19 19 18 18 17 17 17 16 16 16 15 15 15 15 15 15 15 14 14 14 14 15 16 17 18 18 19 19 20 21 22 22 23 24 24 24
18 17 17 17 18 18 18 18 18 18 17 17 17 17 16 15 15 14 14 14 14 14 14 14 14 14 14 14 15 16 17 18 18 18 19 19 20 21 22 23 23 24 24 25
17 17 17 16 17 17 18 18 17 17 16 16 15 15 14 14 13 13 13 13 14 14 13 13 13 13 14 15 16 16 17 17 18 18 19 20 21 22 22 23 24 25 25 26
17 17 17 17 17 18 18 17 16 16 16 15 15 15 14 13 13 13 13 13 13 13 14 14 14 14 15 15 15 15 16 16 17 19 20 21 21 22 23 24 25 25 26 27
16 16 16 16 16 17 17 16 16 16 16 15 15 14 13 13 13 13 13 13 13 13 13 13 13 14 14 14 15 15 16 17 18 19 21 22 22 23 24 25 26 26 27 27
14 14 14 14 15 15 15 15 14 14 13 14 13 13 13 13 12 12 12 12 12 12 12 12 13 13 13 14 16 17 18 19 20 21 22 23 24 25 26 26 27 27 27 27
14 14 14 14 14 14 13 13 12 12 12 12 12 12 12 11 11 12 12 11 11 12 12 13 13 14 15 16 18 18 19 20 21 22 23 25 26 26 27 27 27 27 27 27

GEFSNGP_500_meanwind_162.txt.gz
Wind_Speed
28 29 29 29 28 27 25 24 23 21 20 18 17 16 15 15 14 14 13 12 12 13 11 9 8 8 9 10 10 11 11 11 12 13 13 13 14 15 15 16 16 16 17 18
28 29 30 30 29 28 26 25 23 22 20 18 18 17 16 16 16 14 14 14 14 13 11 9 9 10 10 11 11 11 12 12 13 13 13 14 14 15 16 17 17 18 18 19
28 29 30 30 29 28 27 25 23 22 20 18 18 17 16 16 15 15 15 15 14 12 12 11 11 11 12 12 13 13 13 14 14 14 14 15 15 15 16 17 18 18 19 19
28 29 31 28 28 29 28 26 24 23 21 20 18 18 17 17 16 16 15 16 14 13 12 12 13 14 14 14 15 15 15 16 16 16 16 16 16 16 17 18 18 18 18 18
30 30 30 29 28 28 28 28 27 25 23 21 20 19 19 18 18 18 17 17 16 15 15 15 15 15 15 15 16 16 16 16 17 18 18 17 17 17 17 17 17 17 17 17
34 33 33 29 28 28 27 28 27 26 25 24 22 22 20 19 19 19 19 18 18 17 16 16 16 16 16 16 16 17 17 17 18 18 18 18 18 18 19 19 18 17 17 17
37 36 35 32 31 29 29 28 27 26 26 26 25 24 23 22 21 20 20 20 19 17 16 16 16 16 17 17 17 18 18 18 19 19 19 18 18 18 19 19 19 18 18 18
40 39 37 34 32 30 29 28 28 28 27 26 26 25 24 23 22 21 21 21 20 19 18 18 18 18 18 18 18 19 19 19 19 19 19 19 19 19 19 19 19 19 19 19
42 41 38 36 33 32 30 29 28 28 27 26 26 25 25 24 24 23 22 22 22 22 20 19 18 19 18 19 19 20 20 20 20 20 20 20 20 20 20 20 20 20 20 20
43 42 40 38 35 33 31 30 29 28 28 27 26 26 25 25 24 24 23 23 21 20 19 18 19 19 20 20 20 21 21 21 21 21 21 21 20 20 21 21 21 21 21 21
43 42 40 38 36 35 33 30 28 28 29 29 28 27 26 25 25 25 23 23 21 20 19 20 20 20 20 20 21 21 21 21 21 22 21 21 21 21 21 22 22 22 21 21
42 41 40 38 36 35 33 31 29 28 29 28 28 28 27 26 25 24 23 22 21 20 19 20 20 20 21 21 22 22 21 21 21 21 21 20 20 21 21 21 21 21 21 21
41 41 40 38 36 34 32 30 29 28 27 27 27 28 28 27 25 24 23 22 20 19 20 20 20 21 21 21 21 21 21 21 21 21 20 20 20 21 21 21 21 21 21 21
40 40 39 38 36 34 31 30 29 29 28 27 27 26 26 25 24 23 21 20 19 19 20 20 20 21 21 21 21 21 21 20 20 20 20 20 21 21 20 20 20 20 20 21
37 37 35 34 33 31 30 30 29 28 27 27 26 26 25 24 22 21 20 21 21 21 21 21 21 21 21 21 21 20 20 20 20 20 20 20 20 20 20 20 20 21 21 22
34 34 33 32 31 30 29 29 29 29 28 28 27 25 24 23 22 21 21 21 21 21 21 22 22 22 21 21 20 20 20 20 20 19 20 20 20 20 20 21 21 22 22 22
31 31 30 30 29 28 28 28 28 28 28 26 24 24 23 22 22 22 21 21 21 21 21 21 21 21 20 19 19 19 19 19 19 20 20 20 20 20 20 21 21 22 22 23
28 28 28 27 26 27 27 27 28 28 27 25 24 23 23 22 22 22 22 22 21 21 21 21 20 20 19 19 19 19 19 19 20 19 19 19 19 20 20 20 21 21 23 24
26 27 26 25 24 24 26 25 25 26 27 27 26 24 23 23 22 22 21 21 21 20 20 20 19 19 19 19 19 19 19 19 19 19 19 19 20 20 21 21 22 22 23 24
23 25 25 23 23 23 24 24 23 23 25 25 24 23 22 21 21 20 20 20 19 19 19 19 18 19 19 19 18 18 19 19 19 19 19 19 20 21 21 22 22 23 23 24
21 22 23 23 23 22 22 21 21 22 23 23 22 22 21 20 20 20 19 18 18 18 18 18 18 18 18 18 18 18 18 18 19 19 19 20 20 21 21 22 23 23 23 24
21 21 21 21 20 20 20 20 20 21 22 21 21 20 20 19 19 18 18 18 18 18 18 18 18 18 18 18 18 18 18 18 18 19 20 20 20 21 21 22 22 23 23 23
19 19 19 19 18 18 18 19 19 19 19 19 19 19 19 18 18 18 18 18 18 17 17 17 17 17 17 17 17 17 17 17 18 19 20 20 20 21 21 22 22 23 24 25
18 18 18 18 17 17 17 17 17 18 18 18 18 18 18 18 17 18 18 17 17 16 16 16 16 16 16 16 17 17 17 18 18 19 20 20 21 21 22 22 23 24 25 26
18 17 17 17 16 16 16 16 16 16 17 17 17 17 16 17 17 17 17 16 15 15 15 15 16 16 16 17 17 16 17 18 19 20 20 20 21 21 22 23 24 25 26 27
17 16 16 16 15 16 16 16 16 16 16 15 15 15 15 15 15 15 14 14 14 14 15 15 15 15 15 15 15 16 17 19 19 20 20 21 21 22 23 25 25 26 27 27
16 16 15 15 14 14 14 14 14 14 14 14 14 14 14 14 14 14 13 13 13 13 13 14 14 14 14 15 16 17 18 19 19 20 21 22 23 24 25 26 27 27 27 27

GEFSNGP_500_meanwind_168.txt.gz
Wind_Speed
29 29 28 27 26 26 25 23 21 19 18 17 17 16 16 15 15 14 14 14 13 13 12 12 12 12 12 11 11 11 12 13 13 13 12 13 13 14 15 16 17 17 18 18
29 29 28 27 28 27 26 24 22 21 19 18 17 16 15 15 15 14 14 14 14 13 13 13 13 12 12 11 12 12 13 14 14 15 15 15 15 16 16 17 17 17 17 18
27 27 28 29 28 26 25 23 22 21 19 18 17 16 16 16 15 15 14 15 15 15 15 14 14 14 14 13 14 14 15 15 15 16 16 16 17 17 18 18 18 18 19 20
27 28 28 27 26 25 24 23 22 21 20 19 18 18 17 17 16 16 16 16 16 16 16 16 16 16 16 16 16 16 16 17 17 16 17 18 18 18 18 18 19 19 20 21
28 27 27 28 26 25 24 23 23 22 21 20 19 19 18 18 17 17 17 17 17 17 17 17 17 16 16 17 17 17 17 17 17 18 18 18 18 18 18 19 19 20 21 20
30 28 26 27 26 25 24 24 23 23 22 21 21 21 20 20 19 19 19 18 18 18 18 17 17 17 17 17 18 18 18 18 19 19 19 19 19 19 20 20 20 21 21 21
30 28 27 28 25 25 26 25 24 23 23 22 22 22 22 22 21 20 20 20 20 19 18 18 18 18 18 19 19 19 20 20 20 20 21 21 21 21 22 22 22 22 22 21
31 29 30 28 26 27 26 26 25 25 24 24 23 23 23 22 22 22 22 21 20 20 20 20 20 20 20 20 21 21 20 21 21 22 22 22 22 22 23 23 23 22 22 22
34 32 31 28 27 27 27 27 26 26 25 25 25 24 24 24 23 23 22 22 21 22 22 22 21 21 21 22 22 22 21 22 22 23 23 23 23 23 23 23 23 22 22 22
34 33 31 29 29 28 28 27 27 27 26 26 26 25 25 24 24 23 23 22 22 22 23 23 23 22 22 23 23 23 22 23 23 23 23 23 24 23 23 22 22 22 22 22
35 34 32 32 31 29 29 29 28 27 27 27 26 26 25 24 24 24 24 24 24 23 23 24 24 23 23 23 23 22 22 23 23 23 24 24 23 23 23 22 22 22 22 21
37 35 34 33 32 31 31 30 29 28 27 26 26 26 25 25 25 25 25 25 25 25 25 24 24 24 23 23 22 22 23 23 23 23 23 24 23 23 22 22 22 21 21 21
36 35 34 33 32 32 31 30 29 28 28 27 27 27 26 26 26 26 26 26 27 26 26 26 25 24 24 23 23 23 24 24 24 24 24 23 23 23 22 22 22 21 21 21
36 35 34 34 33 32 32 31 30 30 29 28 28 28 28 28 27 27 27 27 27 27 27 26 26 25 24 24 24 24 24 24 24 24 23 23 23 23 22 22 21 21 21 22
36 35 35 34 33 33 32 32 32 32 31 30 29 29 29 28 28 27 27 27 27 27 27 26 25 25 24 24 24 24 24 24 23 23 22 22 22 22 22 22 22 22 22 22
35 35 34 33 33 32 32 32 32 32 31 31 31 30 30 29 29 28 28 28 28 27 27 27 26 25 25 24 24 25 25 24 23 23 22 22 22 22 22 22 22 23 23 23
33 33 33 33 32 31 31 31 32 32 32 31 31 30 29 29 29 28 28 28 27 27 27 27 26 26 25 25 25 25 24 24 24 23 22 22 22 22 22 22 23 23 22 23
32 32 32 32 31 31 31 31 31 31 32 32 31 30 30 29 29 28 27 27 27 27 26 26 26 26 25 24 24 24 24 24 23 23 23 22 22 22 22 22 22 23 22 23
31 30 30 30 30 29 30 30 30 30 30 30 30 31 30 29 28 27 27 26 25 26 26 26 26 25 24 24 23 23 23 23 23 23 22 22 23 22 22 22 22 22 23 23
30 30 30 30 29 29 29 28 29 29 29 29 29 29 29 29 29 28 26 25 25 25 25 25 25 25 24 23 23 24 23 23 23 22 22 22 22 21 22 22 22 23 23 23
29 29 29 29 29 29 29 28 28 28 29 29 29 29 29 29 29 28 27 26 24 24 24 24 24 23 23 22 22 23 23 22 22 22 21 21 20 21 21 21 22 22 22 23
27 27 28 28 27 27 27 28 27 27 27 28 28 27 27 27 27 27 26 25 25 25 25 25 24 23 22 22 22 22 22 22 21 20 20 20 20 21 21 21 21 22 22 23
26 26 26 26 26 26 26 26 27 26 26 26 26 26 26 25 26 26 25 25 25 25 24 23 22 22 22 22 22 22 21 21 20 20 20 21 21 21 20 20 21 22 23 23
25 25 24 24 25 25 25 25 24 24 24 24 24 24 24 23 23 24 23 23 23 22 21 21 21 21 21 21 20 19 19 19 20 20 20 21 20 20 20 21 22 23 23 24
23 23 24 24 24 23 23 23 23 22 21 21 21 21 21 21 21 21 20 19 19 19 19 19 20 19 19 19 19 19 19 20 20 20 20 19 20 20 21 22 23 23 24 25
21 21 21 22 21 21 20 20 20 20 20 20 19 19 19 18 18 18 18 18 18 18 18 18 18 18 18 18 18 19 19 19 19 19 20 20 21 21 22 23 24 25 26 27
18 19 20 19 18 18 18 18 18 18 18 17 17 17 17 17 17 16 16 17 17 17 17 17 17 17 17 17 18 19 18 18 19 20 20 21 21 22 24 24 25 26 26 26

GEFSNGP_500_meanwind_174.txt.gz
Wind_Speed
29 24 19 20 21 22 24 23 22 19 20 22 21 20 21 20 19 18 17 17 16 15 14 15 16 17 17 17 16 16 16 17 17 16 16 16 16 16 16 16 16 17 18 19
32 29 24 21 21 21 22 24 24 21 20 20 22 22 22 22 21 19 18 17 15 14 15 16 16 17 18 17 17 17 17 18 17 16 16 16 16 17 17 17 17 18 19 19
32 30 28 26 22 21 21 22 23 23 24 23 25 25 25 24 23 20 18 16 16 16 16 17 17 17 17 17 17 17 18 17 17 17 17 17 18 18 18 19 19 19 19 19
31 30 30 27 24 23 23 23 24 25 25 26 28 27 26 25 23 20 19 18 18 18 18 18 18 18 18 17 17 18 18 18 18 19 19 19 19 19 19 19 19 20 20 21
31 29 27 25 25 25 25 26 26 26 27 28 28 26 26 25 23 21 20 20 19 19 19 19 19 19 19 18 18 18 19 19 19 20 20 20 20 20 20 20 20 21 21 22
32 29 25 25 26 26 26 28 28 29 28 28 27 26 25 24 23 22 21 21 21 20 20 20 20 20 20 19 20 20 20 20 21 21 21 21 21 21 21 21 22 22 23 23
33 31 27 25 26 27 28 30 30 29 28 28 28 27 26 24 23 22 22 22 22 22 21 21 21 21 21 21 21 22 21 21 22 22 21 21 22 22 23 22 23 23 23 24
34 32 30 29 27 29 29 29 29 29 29 29 28 27 27 25 24 24 23 23 23 23 23 23 22 22 22 23 22 22 22 22 22 22 22 22 22 23 23 23 23 24 24 24
34 35 35 33 33 33 30 29 29 30 29 29 29 28 27 26 25 25 25 25 25 24 24 24 23 23 23 23 23 23 24 24 23 23 23 23 23 23 24 24 24 24 24 24
36 36 38 37 36 34 32 32 30 30 30 30 29 28 27 26 26 26 25 26 26 25 25 25 25 25 24 24 24 24 25 25 25 24 24 24 23 24 24 24 24 25 25 25
38 38 38 38 37 34 32 32 32 32 31 30 30 29 28 27 27 27 27 27 27 26 26 26 26 26 26 25 25 25 25 26 25 24 24 24 24 24 24 24 25 25 25 26
39 38 38 37 36 35 34 33 33 33 32 32 31 31 29 29 29 28 28 28 28 28 27 27 27 27 27 26 26 27 27 27 26 25 25 24 24 24 24 25 25 26 26 26
40 39 38 37 35 35 34 33 33 33 33 33 33 32 32 31 30 30 29 29 29 29 28 28 28 28 28 27 28 28 27 27 26 25 25 24 24 25 25 25 26 26 26 25
41 40 38 37 37 37 36 34 34 33 33 33 32 32 32 31 31 31 30 30 30 30 29 29 29 29 29 29 29 29 28 27 27 26 25 25 25 25 25 26 26 25 25 24
41 40 39 37 38 37 36 36 35 34 33 32 32 32 31 31 31 31 31 30 30 30 30 30 29 29 29 30 29 29 29 28 27 26 26 26 26 26 26 26 26 25 25 25
40 40 40 38 38 37 37 36 36 35 34 33 32 32 31 31 31 31 31 31 31 31 30 30 30 30 30 30 29 29 29 28 28 27 27 27 27 26 26 25 25 25 25 25
39 40 40 39 38 38 37 37 36 35 34 33 33 32 31 32 32 32 32 31 31 31 31 31 31 31 30 30 30 29 28 27 28 28 28 27 27 26 26 25 25 25 26 26
38 39 39 39 39 38 37 37 36 35 34 33 33 33 33 33 33 33 33 32 32 31 31 30 30 30 29 29 29 28 27 27 27 27 26 26 26 26 26 26 26 26 26 26
37 37 37 37 38 37 37 36 35 35 34 34 33 34 34 34 34 33 33 32 32 32 31 30 30 29 29 29 28 28 27 27 26 26 25 25 26 25 25 25 26 26 25 25
36 35 36 36 36 36 36 35 35 34 34 33 33 32 32 31 31 31 31 32 31 31 30 30 29 29 29 28 27 27 26 25 25 25 25 25 25 25 25 25 25 26 25 26
34 34 34 35 35 35 34 34 34 34 33 32 32 32 31 31 30 30 30 30 30 30 29 28 28 28 27 26 25 25 25 25 24 24 25 24 25 25 25 25 26 26 25 26
33 33 33 33 34 33 33 33 33 33 32 32 32 31 31 30 30 30 30 30 30 29 29 28 28 27 26 26 25 25 24 24 24 24 24 24 24 24 25 25 25 26 26 26
31 31 31 32 32 32 31 31 31 31 31 31 30 30 30 30 29 29 29 28 28 28 27 27 26 25 25 25 25 24 24 24 23 23 23 23 23 23 24 25 25 25 26 26
28 28 28 29 29 29 29 29 28 28 28 28 29 29 29 29 28 27 27 26 26 25 25 24 25 25 25 25 25 24 23 23 23 22 22 22 23 23 24 25 26 26 26 27
25 26 26 26 27 27 27 27 27 27 26 26 26 25 25 25 25 25 25 24 24 24 24 24 24 24 23 23 22 22 21 21 21 22 22 23 23 24 25 25 26 26 27 27
23 23 24 24 25 25 24 24 24 24 24 24 23 23 22 22 21 21 22 22 22 22 22 21 21 21 21 20 20 20 20 20 21 22 23 24 24 24 24 25 26 27 28 28
21 22 22 22 22 22 21 21 22 22 22 21 21 21 20 20 20 19 19 19 18 18 18 19 19 19 18 19 19 19 20 20 21 22 23 23 23 24 25 26 27 27 28 28

GEFSNGP_500_meanwind_180.txt.gz
Wind_Speed
29 28 27 25 24 23 23 23 24 23 22 20 19 19 19 18 15 14 13 13 14 14 14 13 12 12 11 12 12 11 11 12 12 12 11 11 11 11 10 11 11 12 12 12
31 31 31 29 27 25 24 23 23 24 23 22 20 20 19 18 15 14 15 15 15 15 15 13 12 12 12 12 12 13 13 12 13 12 12 12 12 12 12 12 12 13 13 13
33 33 33 33 29 27 26 25 24 24 23 23 23 21 20 19 18 18 19 18 17 16 15 13 12 12 12 12 13 13 13 13 13 13 13 13 13 13 13 13 14 13 14 14
34 34 37 33 31 29 27 26 26 25 25 25 25 24 23 21 20 20 20 19 18 17 15 14 13 12 12 12 14 14 14 14 14 14 14 14 14 14 14 14 14 14 15 16
34 35 36 33 32 31 29 28 28 27 25 26 26 25 23 23 22 21 20 20 19 18 17 15 14 13 13 14 15 15 15 16 15 15 15 14 15 15 15 15 15 15 16 17
36 36 37 34 33 32 31 31 30 28 28 27 26 25 24 23 23 22 21 21 20 17 17 16 15 15 15 16 17 17 16 16 16 16 16 16 16 16 16 16 16 17 17 17
36 36 36 34 35 34 34 33 31 30 29 29 28 26 25 24 23 23 23 22 21 20 18 17 17 16 16 17 17 17 17 18 18 17 16 17 17 17 17 18 18 18 18 18
36 36 35 33 34 36 36 34 33 32 31 30 29 28 28 26 25 24 24 22 22 21 20 19 18 18 18 18 19 18 19 19 18 18 18 18 18 18 18 19 19 19 19 19
37 36 34 34 35 35 36 35 34 33 32 31 30 30 28 27 26 25 25 24 23 22 22 21 20 21 20 20 20 20 20 20 20 20 20 20 19 19 19 20 20 20 19 19
39 37 35 35 36 36 36 35 34 33 31 30 30 29 29 28 27 25 24 23 23 23 23 22 22 22 21 21 21 21 21 21 21 21 21 21 21 21 20 20 20 20 20 20
39 38 37 36 35 35 35 33 32 33 32 31 30 29 27 27 27 25 24 24 25 24 24 23 23 23 22 22 21 21 21 22 22 22 22 22 22 21 21 21 22 22 22 22
38 37 37 36 36 37 36 35 34 34 32 30 30 30 29 29 28 27 26 25 24 24 24 24 24 23 23 23 22 22 22 22 22 22 23 23 22 22 22 23 23 23 24 24
37 37 36 35 36 36 35 35 35 35 33 32 32 31 31 30 29 27 26 25 25 25 25 25 24 24 24 24 24 24 24 24 24 24 24 24 23 23 24 24 25 25 24 24
38 37 37 37 36 36 35 34 34 34 32 32 32 32 32 31 31 29 26 26 25 26 26 26 26 26 26 25 25 24 24 24 24 24 24 24 24 24 25 25 25 25 25 25
39 38 37 36 36 34 34 34 34 34 33 33 33 32 31 31 30 29 28 27 26 27 27 27 27 27 27 26 26 25 25 25 25 25 25 25 25 25 26 26 26 26 26 26
40 39 37 37 37 35 34 34 34 34 33 32 31 32 31 30 30 29 29 28 28 28 28 28 28 27 27 27 27 26 26 26 26 26 26 26 26 26 27 26 26 26 26 27
41 40 38 37 36 37 36 35 34 33 32 32 32 32 31 31 30 30 29 29 29 28 28 29 29 28 27 27 27 27 27 27 27 27 27 27 27 27 27 27 27 27 27 27
41 40 39 38 37 36 36 36 35 34 33 32 32 32 32 32 31 30 30 30 30 30 30 30 29 29 28 28 28 28 28 27 27 27 28 27 27 27 27 27 27 27 27 27
40 40 39 38 38 38 37 37 35 35 34 33 32 32 32 32 31 31 30 30 30 30 30 30 29 29 29 28 28 27 27 27 27 28 28 27 27 27 27 27 27 27 27 27
37 38 39 39 38 37 36 35 35 35 34 33 32 32 32 32 31 31 30 30 30 29 29 29 29 29 29 28 28 28 28 28 28 28 27 27 27 27 27 27 26 26 27 27
34 36 36 37 37 35 35 34 34 34 33 33 32 31 31 31 31 31 30 29 29 29 29 29 28 27 27 28 28 28 28 27 27 27 28 27 27 26 26 26 26 26 26 26
31 32 32 33 33 34 34 34 33 33 32 32 32 32 31 31 31 31 30 30 29 29 29 28 28 28 28 28 28 27 27 26 26 27 27 26 26 25 25 24 24 24 25 25
29 29 29 30 30 31 31 31 31 31 31 31 31 31 30 29 29 30 30 30 30 29 29 28 27 27 27 27 27 26 26 25 25 25 25 25 25 24 24 24 24 23 23 24
26 26 27 27 28 28 28 29 29 29 30 29 29 29 28 28 28 28 28 28 28 28 28 27 26 26 25 25 25 24 24 24 25 25 25 24 24 24 24 23 23 24 24 25
23 24 24 26 26 27 26 26 27 26 27 27 27 27 27 27 27 27 27 27 26 26 25 24 24 23 23 23 24 23 23 24 24 23 22 22 23 23 23 23 24 25 25 26
20 22 23 24 25 25 25 25 25 24 24 24 24 24 24 24 24 24 24 24 24 24 23 23 23 23 23 23 22 22 22 21 21 21 21 22 22 23 24 24 25 25 26 26
18 19 20 21 22 22 23 23 23 22 22 22 22 22 22 22 22 22 22 22 22 22 21 21 22 22 22 22 22 21 21 21 21 21 22 23 23 23 23 24 24 25 25 26

GEFSNGP_500_meanwind_186.txt.gz
Wind_Speed
31 31 30 29 29 29 27 26 24 21 20 18 17 16 15 14 13 12 13 13 12 13 13 12 12 11 11 10 11 11 11 11 12 11 10 9 9 10 10 11 11 11 12 12
32 31 31 31 30 29 28 26 25 23 21 18 18 17 16 15 14 14 14 14 15 15 14 13 12 12 12 11 11 12 12 12 12 11 11 11 11 11 12 12 12 12 12 13
32 31 31 32 31 30 29 27 26 24 21 20 19 17 17 17 16 16 15 15 16 15 15 14 13 11 11 11 11 12 13 13 13 12 12 12 12 12 13 13 14 14 14 14
33 32 33 31 30 30 30 29 27 25 23 22 20 18 18 18 17 16 15 15 16 14 14 14 14 12 12 12 12 13 14 13 13 13 14 14 13 14 14 14 14 14 15 15
35 34 34 32 31 30 30 30 29 27 25 23 22 21 20 19 18 17 16 16 16 16 16 16 15 14 13 12 13 14 13 14 14 15 15 14 14 15 15 15 15 16 16 16
36 36 36 33 31 31 31 30 28 27 26 25 24 23 21 20 19 18 17 17 18 17 17 16 15 14 15 15 15 15 15 15 16 16 15 15 15 15 15 16 16 17 17 17
36 37 37 34 33 32 32 30 28 27 27 26 25 23 22 21 21 20 19 19 19 18 17 16 16 15 15 15 15 16 17 17 16 16 16 16 16 16 16 17 17 17 18 18
37 38 37 35 33 33 33 30 29 28 28 28 26 25 24 24 23 22 20 20 20 19 18 18 18 18 18 16 17 17 18 18 18 17 17 17 17 17 18 18 18 19 19 19
38 37 36 35 35 34 33 32 30 29 29 28 27 27 26 25 24 23 23 22 21 20 20 20 20 20 19 19 19 19 19 18 18 18 18 18 19 19 19 19 19 19 20 20
39 38 37 36 35 35 34 32 30 30 29 28 28 28 28 27 25 24 24 24 23 22 22 21 22 22 21 21 20 20 19 19 19 19 19 19 20 20 20 20 20 20 20 21
40 38 37 36 35 34 34 33 31 30 30 31 29 28 28 27 26 26 26 25 24 24 24 24 23 24 23 22 21 21 20 20 20 20 20 20 20 21 21 20 21 21 22 22
41 39 38 37 35 35 33 33 32 31 30 30 30 29 29 29 28 26 25 25 25 25 24 24 24 24 24 23 22 22 21 21 21 21 21 21 21 22 21 22 22 23 23 23
40 39 38 37 36 34 33 32 31 31 30 30 29 29 30 29 28 27 26 26 26 25 24 24 24 25 24 23 22 22 22 22 22 22 22 23 23 23 23 23 24 24 25 25
39 38 37 36 36 35 34 33 32 31 30 30 29 30 30 30 29 29 28 28 26 25 25 25 25 24 23 22 22 23 22 22 23 23 23 24 24 24 24 25 25 25 25 26
40 39 37 36 36 36 35 34 33 32 32 32 32 32 31 31 30 29 29 29 27 26 26 25 24 23 23 23 23 23 23 23 23 23 24 24 24 25 25 26 26 27 27 27
40 40 38 37 36 37 36 34 34 34 33 33 33 33 32 31 31 30 30 29 27 27 26 25 24 24 24 24 24 24 24 24 24 25 25 25 25 26 26 27 28 28 29 28
39 39 39 37 36 36 36 35 34 33 33 32 33 34 34 32 31 30 29 28 28 27 26 26 25 25 24 25 25 25 26 26 26 26 27 27 27 27 28 29 29 29 29 29
38 38 39 39 38 37 36 35 34 33 33 33 33 33 33 32 30 29 29 29 28 28 27 27 27 27 26 26 26 27 27 27 27 28 28 28 29 29 29 29 29 29 30 29
38 38 38 38 38 37 36 36 35 34 33 32 32 32 32 32 31 30 30 30 30 29 29 28 28 28 28 27 27 27 27 27 28 28 29 29 29 29 29 30 30 30 30 29
38 37 37 36 36 36 36 35 35 34 33 32 32 31 30 30 30 30 30 30 30 29 29 29 28 27 28 27 27 27 27 28 28 28 28 28 29 29 29 29 30 29 29 29
36 37 36 35 34 34 34 33 33 33 32 31 30 30 29 29 30 30 31 30 29 29 29 29 28 28 28 28 28 28 28 29 29 28 28 28 28 29 29 29 29 29 28 28
33 33 33 33 33 33 32 32 32 32 32 30 30 29 29 29 29 29 29 29 29 29 28 28 28 28 29 29 29 29 29 29 29 29 29 28 28 28 28 28 28 28 28 28
29 30 31 31 31 31 31 30 30 30 30 30 29 29 28 28 28 28 28 28 28 28 28 27 28 28 29 30 29 29 29 28 28 28 28 28 28 28 28 28 28 28 28 27
27 27 28 28 28 28 28 29 29 29 29 28 28 28 28 28 28 28 28 28 28 28 27 27 28 28 28 28 28 28 28 27 27 27 27 27 27 27 27 27 27 27 27 26
25 26 26 27 27 27 27 28 28 28 28 28 27 27 27 28 28 28 27 27 27 27 28 28 28 28 28 27 28 28 28 27 27 27 27 27 26 26 26 26 26 26 26 26
23 23 24 24 24 24 25 26 26 26 27 26 26 25 25 26 26 26 26 26 26 27 27 26 26 26 26 26 26 26 26 26 26 26 26 26 26 26 25 26 25 25 25 26
20 21 22 23 23 23 23 24 24 25 25 25 25 25 25 25 25 26 26 25 25 25 25 25 24 24 25 25 25 25 24 25 25 25 25 25 26 25 25 25 25 26 26 26

GEFSNGP_500_meanwind_192.txt.gz
Wind_Speed
32 30 28 27 27 26 25 24 21 20 19 18 16 15 15 14 14 14 14 14 14 14 14 14 14 14 13 13 13 14 13 12 12 12 13 13 13 13 13 12 12 13 13 13
33 31 30 29 28 27 26 25 23 21 20 19 18 17 16 16 15 14 14 14 14 14 14 14 15 14 14 15 14 14 13 13 13 13 14 14 14 14 13 13 13 13 13 13
31 32 31 31 29 28 27 26 24 22 21 20 19 17 17 16 16 15 15 14 14 14 15 15 15 15 15 16 16 15 14 14 15 15 15 15 15 16 15 14 14 14 14 14
31 32 32 30 30 28 27 26 25 24 22 21 20 19 18 17 17 16 16 16 16 16 16 16 16 16 17 17 17 16 15 15 16 16 16 16 16 16 14 15 15 15 15 15
32 31 32 32 31 29 28 27 26 25 24 23 21 20 19 19 19 18 18 17 17 17 18 18 18 18 18 18 16 16 16 16 17 17 17 17 17 15 15 15 15 16 16 16
34 32 30 32 31 29 28 28 27 26 26 24 23 22 22 21 20 20 19 18 18 18 19 19 19 18 18 17 16 16 17 17 18 18 18 18 16 16 16 16 16 16 17 17
34 33 31 32 31 30 30 29 27 26 26 26 25 24 23 22 22 21 21 20 19 19 20 19 18 18 18 18 18 18 18 18 18 18 18 18 17 17 17 17 17 18 18 19
35 33 33 34 32 32 31 29 28 27 26 25 24 24 23 23 23 22 22 22 21 21 21 21 20 19 18 18 18 19 19 19 19 19 19 19 19 18 18 18 18 19 19 19
37 36 35 34 33 32 31 30 29 28 27 26 26 25 25 24 24 24 23 23 23 22 22 21 20 20 19 19 20 20 20 20 21 21 21 21 20 20 20 19 19 19 20 20
37 36 35 34 33 32 32 31 30 29 29 28 27 26 26 26 26 26 26 25 24 24 23 22 22 21 21 21 22 22 22 22 22 22 22 21 21 21 21 20 20 21 21 21
37 36 35 34 33 33 33 32 31 30 29 28 28 28 28 28 27 28 27 26 25 26 25 24 24 24 23 24 24 23 23 23 23 23 23 22 21 22 22 21 22 22 22 22
38 36 36 35 34 33 33 33 32 31 31 30 28 27 27 28 28 28 27 26 26 26 25 25 25 25 25 25 25 24 23 24 24 24 23 23 23 23 23 23 23 23 23 24
38 37 37 36 36 35 34 34 33 32 31 31 29 28 28 28 28 28 28 27 26 26 26 26 26 26 26 27 26 25 24 25 25 24 24 25 24 23 24 24 24 24 25 25
37 37 37 36 36 36 35 35 34 34 33 32 31 30 29 29 29 29 29 28 28 27 27 27 28 27 28 28 27 26 26 26 26 25 25 25 24 24 24 25 25 26 26 26
37 37 37 36 35 35 35 35 34 34 34 33 32 31 30 30 30 30 30 29 29 29 29 29 29 28 29 28 27 27 27 26 26 26 26 25 25 25 26 26 26 27 27 27
36 36 36 36 36 36 35 35 34 34 33 32 31 31 31 31 31 31 30 30 30 30 30 30 30 30 29 28 28 28 27 26 27 27 27 27 27 27 27 27 28 28 28 29
35 35 35 36 36 36 36 36 35 35 33 32 32 32 32 31 31 31 32 32 32 31 31 31 31 30 29 29 29 28 27 27 27 27 27 27 27 28 28 29 29 29 30 29
34 35 35 35 36 36 37 37 37 36 35 34 33 33 33 33 33 33 32 32 32 32 33 32 32 31 30 29 30 30 29 28 28 27 27 28 29 29 29 30 29 30 30 30
35 36 35 35 36 37 37 36 35 35 35 34 34 34 34 33 33 33 33 33 33 32 32 32 32 32 31 29 29 30 29 28 28 28 28 29 29 29 29 29 29 30 30 30
33 34 34 34 35 36 36 36 35 35 35 34 34 34 34 34 34 33 33 33 33 32 32 32 32 32 31 30 30 30 29 29 29 29 29 29 29 29 29 29 29 30 30 30
30 31 32 32 33 33 33 34 35 35 35 35 34 34 34 34 34 33 33 33 33 33 33 33 32 31 30 30 30 30 30 30 31 31 30 30 29 29 29 29 29 29 29 29
30 30 31 32 32 32 32 32 33 34 34 34 34 33 33 33 33 33 32 32 32 32 32 31 31 30 30 31 31 30 31 31 32 31 31 30 30 30 29 30 30 30 30 30
29 30 31 32 31 32 32 32 32 33 33 33 33 32 32 33 32 31 31 31 30 30 30 29 29 29 29 30 30 30 30 30 30 30 30 30 30 30 30 30 30 30 30 30
27 28 29 30 31 31 32 32 32 31 32 32 32 32 32 32 32 31 31 30 29 29 29 30 30 30 29 29 30 30 29 29 30 29 29 30 30 30 30 29 30 30 29 29
26 27 28 29 29 30 31 31 31 30 29 30 30 30 30 31 31 31 30 30 30 29 29 29 28 29 29 29 29 29 29 29 29 29 29 30 29 29 29 29 29 28 28 28
24 25 26 27 28 28 29 29 29 28 28 28 28 28 28 29 29 28 28 28 28 28 28 28 28 28 28 29 29 30 30 30 30 30 30 30 30 29 29 29 28 28 28 28
22 23 24 25 26 26 26 27 26 27 27 27 27 27 27 27 27 27 27 27 28 28 28 27 27 28 28 29 30 30 30 30 30 30 29 29 28 28 28 27 27 27 27 28

GEFSNGP_500_meanwind_198.txt.gz
Wind_Speed
31 26 23 22 23 24 25 25 23 20 20 21 22 22 21 19 17 16 15 14 14 14 14 14 15 15 15 15 16 16 16 17 17 18 17 16 16 15 15 15 15 15 14 14
35 31 27 25 24 23 24 25 25 23 21 22 24 24 23 21 19 19 18 15 15 15 15 15 15 16 16 16 17 17 17 18 19 19 19 17 17 17 16 15 15 16 15 15
35 33 31 30 26 24 24 24 24 24 24 24 25 26 25 23 21 21 20 16 16 16 16 16 16 17 17 18 18 18 18 19 20 20 19 18 18 18 18 16 16 16 17 16
34 33 34 31 27 25 24 24 24 25 27 27 26 27 27 25 23 21 20 18 18 18 17 17 18 18 18 19 19 19 19 20 20 20 19 19 19 19 18 17 17 18 18 17
34 33 32 29 29 27 27 27 28 28 30 29 29 28 28 25 24 22 21 21 20 19 19 18 19 19 19 19 20 20 21 21 22 21 20 19 19 20 19 18 18 18 18 18
35 33 31 29 27 27 29 31 31 31 31 30 29 29 27 25 23 22 22 21 21 21 20 20 20 20 20 20 21 21 22 22 22 21 20 20 20 20 20 20 20 19 19 19
35 33 31 30 29 29 31 33 32 32 33 32 31 30 27 25 24 23 22 22 22 23 22 21 21 21 22 22 22 23 23 23 22 21 21 20 20 20 21 21 21 20 20 20
35 33 33 32 32 33 34 33 32 31 32 32 32 31 29 27 25 24 23 23 23 23 23 23 23 23 23 24 24 24 24 23 22 22 21 21 21 21 21 22 22 21 21 20
36 37 36 35 35 35 34 33 33 32 31 30 30 30 29 28 27 26 25 25 25 25 25 24 24 25 25 24 24 24 23 23 22 22 22 22 22 22 22 22 22 22 21 21
37 39 38 37 36 35 35 34 34 33 31 29 29 29 28 28 28 27 26 26 26 26 26 26 26 25 25 25 24 24 24 24 23 23 24 24 23 23 22 22 23 22 22 23
40 40 39 38 37 36 35 34 34 34 32 31 30 29 28 28 29 28 28 27 27 27 27 26 26 26 26 26 25 25 25 25 25 25 25 25 25 24 24 24 24 24 23 23
41 40 40 39 37 36 36 35 35 35 34 32 31 30 29 29 29 29 28 28 28 28 28 28 27 27 27 27 27 26 26 26 26 27 27 26 26 26 26 26 26 26 25 25
41 40 40 40 39 37 36 35 34 34 33 31 31 31 30 30 29 29 29 29 28 29 29 29 29 28 28 28 28 27 27 27 27 27 27 27 28 28 28 28 28 27 27 27
40 40 41 41 40 39 37 35 35 34 34 33 32 33 32 32 31 31 31 30 30 29 30 30 29 29 29 29 28 28 28 28 28 28 28 29 29 29 29 29 28 28 28 29
40 40 41 41 40 39 37 36 35 35 34 34 34 35 35 34 33 32 32 32 31 30 30 31 31 31 30 29 29 29 29 29 29 29 29 30 30 30 30 29 29 29 29 30
38 40 40 40 40 40 39 37 36 35 34 35 35 35 35 35 34 33 33 33 32 32 31 32 32 32 31 31 31 30 30 30 30 30 30 31 30 30 30 29 29 30 30 30
35 37 38 39 40 41 40 39 38 36 35 36 37 36 36 36 35 35 34 34 34 33 33 32 33 33 33 33 33 33 32 32 32 32 32 31 31 30 30 30 30 30 30 31
34 36 37 38 38 39 40 40 40 39 37 37 37 37 37 37 37 36 35 35 35 35 34 34 34 34 34 34 34 34 33 34 33 33 32 31 31 30 30 30 31 30 30 31
34 36 36 37 37 38 38 39 39 39 38 38 38 37 36 36 36 37 37 37 36 36 35 35 36 36 36 36 35 35 35 34 34 32 31 31 31 31 31 31 31 31 31 32
34 35 36 36 36 37 38 38 39 39 38 38 38 38 37 37 36 37 37 37 37 37 36 37 37 36 36 36 35 35 35 34 33 33 33 32 32 32 32 32 32 32 32 32
33 33 34 34 36 37 37 37 37 37 37 37 37 38 37 37 37 37 37 37 37 37 37 36 36 36 36 35 35 34 34 33 33 33 33 33 33 33 33 33 33 33 33 32
31 32 32 33 33 34 34 35 36 37 37 37 36 37 37 37 37 37 37 37 37 36 36 36 35 34 34 34 34 35 34 34 33 33 33 33 33 33 33 33 33 33 32 32
29 30 31 32 32 33 34 35 37 38 38 37 37 37 37 37 36 35 36 36 37 37 35 34 34 34 34 35 35 35 34 34 34 33 33 32 32 32 33 33 33 33 33 33
25 26 28 30 31 32 33 34 35 36 37 38 38 38 37 37 37 37 36 36 36 37 36 35 35 35 35 35 35 34 34 34 34 34 34 33 33 33 33 33 33 32 33 33
24 26 27 28 29 30 31 32 34 35 36 36 36 36 37 37 37 36 35 35 35 35 34 34 34 34 34 34 34 34 34 34 34 34 34 34 34 34 34 34 33 33 34 34
22 22 24 26 27 27 28 29 30 32 32 33 32 33 33 34 34 33 33 33 33 33 33 32 32 32 33 33 33 33 33 33 33 33 34 34 34 34 34 33 33 33 34 35
20 21 22 23 25 25 26 26 27 29 30 31 31 32 32 32 32 33 33 33 32 32 31 31 31 31 31 31 31 31 31 32 32 32 31 31 31 32 32 33 34 34 34 34

GEFSNGP_500_meanwind_204.txt.gz
Wind_Speed
34 32 31 31 31 30 29 27 27 25 22 21 19 17 17 16 16 16 15 15 14 13 13 13 12 12 12 13 13 12 12 14 14 14 14 14 14 13 12 11 11 11 10 10
35 34 33 32 31 31 31 29 29 27 24 22 21 21 19 18 18 17 16 16 15 14 13 14 12 13 13 13 13 13 14 14 15 15 15 15 15 14 13 12 11 11 11 12
36 35 34 34 30 30 31 31 30 30 28 25 23 22 21 20 19 18 18 17 17 16 15 14 14 14 14 14 14 14 15 15 16 15 16 15 16 16 14 13 12 12 12 12
38 37 37 33 32 32 32 31 31 30 29 28 27 25 24 23 22 22 20 20 19 18 18 16 15 15 15 15 15 15 15 16 16 17 17 16 16 15 14 13 13 13 13 13
39 40 38 35 33 34 34 33 32 31 29 29 29 28 27 26 25 25 24 23 22 21 20 18 16 16 16 16 15 15 16 17 17 17 17 17 16 15 14 13 14 15 15 15
41 41 41 37 35 34 36 36 34 33 32 31 30 29 28 28 28 28 27 26 24 23 22 21 18 18 18 18 17 17 17 17 17 18 18 17 16 15 15 15 15 15 16 16
41 42 42 38 36 35 36 36 34 33 33 33 32 31 30 29 29 29 27 26 25 25 24 23 21 21 19 19 19 19 19 18 17 18 17 17 17 16 16 16 16 16 16 16
40 42 42 38 36 36 35 34 33 33 33 34 34 33 32 31 30 29 28 26 25 25 25 24 23 20 19 20 20 20 20 19 18 18 18 18 17 17 17 16 17 17 17 17
39 39 39 38 37 35 35 35 34 34 34 33 34 35 35 34 31 30 30 28 27 26 26 25 23 21 21 21 21 21 21 20 19 19 19 18 18 18 18 18 18 18 18 18
38 38 37 37 37 36 35 36 35 34 33 34 34 34 35 35 33 32 31 30 30 29 28 25 23 23 22 22 22 21 21 21 20 20 19 19 19 19 20 20 19 20 20 20
38 37 37 36 36 36 36 35 35 34 34 35 35 34 35 35 34 33 32 31 30 29 27 26 25 24 24 23 23 22 22 22 21 21 21 21 21 21 22 21 21 21 21 22
37 37 37 36 36 36 36 36 35 36 36 35 35 34 34 33 32 32 33 32 30 29 28 27 26 25 24 24 24 24 24 23 23 22 23 23 23 22 22 23 23 22 23 23
37 36 36 37 36 36 37 37 35 34 34 35 35 34 34 33 33 32 32 32 30 28 28 27 26 25 25 25 25 25 24 25 24 25 25 25 24 24 24 25 24 25 25 24
34 34 35 34 36 37 38 38 37 36 34 33 34 33 32 33 33 33 33 31 29 29 28 28 28 27 27 27 27 26 26 26 26 26 27 26 25 25 26 26 26 26 26 26
32 33 33 33 34 36 38 37 36 37 36 35 34 34 32 32 32 32 31 31 29 29 30 30 29 29 30 29 29 29 28 28 27 27 27 27 26 26 27 27 27 27 27 27
32 33 34 34 35 36 38 38 37 36 36 36 36 35 34 33 33 32 31 30 31 30 31 31 31 31 31 31 31 30 30 29 28 27 28 28 28 28 28 28 28 28 27 27
31 32 33 34 34 35 37 36 37 37 37 37 36 35 34 33 32 32 32 32 33 32 32 32 32 32 32 32 32 31 31 30 30 29 29 29 30 29 29 28 28 28 28 28
32 31 31 32 33 34 35 35 35 36 37 38 37 37 36 35 34 34 34 34 34 34 33 33 33 32 32 32 32 33 32 32 31 31 31 30 31 30 30 30 30 30 30 29
30 29 29 29 31 33 34 34 34 35 35 36 36 37 37 36 36 35 34 35 35 34 35 35 35 34 33 33 34 34 33 33 33 32 32 32 32 31 31 30 31 31 30 30
30 29 29 30 32 33 33 34 34 34 34 35 35 35 36 36 35 35 35 34 35 35 36 36 36 36 35 34 34 34 34 33 33 33 32 32 32 33 32 31 31 30 30 30
27 28 28 30 31 33 34 34 34 34 33 34 34 34 35 36 36 35 34 35 35 36 37 37 36 36 36 36 36 35 35 34 34 33 33 33 33 33 32 32 31 30 31 31
27 27 28 28 29 30 31 34 33 33 34 34 34 34 35 35 36 35 33 33 35 35 36 35 35 36 36 37 37 36 35 35 34 33 33 33 32 32 32 31 31 31 31 30
25 25 25 26 27 28 29 30 31 32 32 33 33 33 34 33 33 34 34 34 33 33 34 34 35 35 35 35 34 34 34 33 33 32 32 32 31 31 32 32 31 30 30 30
22 22 22 23 25 27 28 28 30 30 31 31 32 33 33 33 33 33 34 35 35 34 33 33 33 33 32 33 33 33 32 32 32 32 31 31 31 31 31 31 31 30 30 31
19 20 20 21 23 25 26 27 28 29 29 30 31 32 32 33 33 32 32 33 34 32 32 33 32 32 31 31 31 31 31 31 31 31 30 30 30 30 30 30 30 30 31 31
18 18 19 20 20 22 23 26 27 28 29 29 29 30 30 31 31 31 31 31 32 33 33 32 32 31 31 31 31 31 30 30 29 29 29 29 30 30 30 31 31 31 31 31
17 17 18 18 19 19 20 22 23 24 26 27 27 28 28 28 28 29 30 30 30 31 31 31 31 30 30 30 30 29 29 29 29 29 29 29 29 30 30 31 30 30 30 29

GEFSNGP_500_meanwind_210.txt.gz
Wind_Speed
34 34 34 34 33 32 32 32 31 28 26 24 22 20 19 18 17 15 14 13 12 12 12 12 12 13 13 14 14 14 15 15 15 16 16 16 15 15 15 15 15 14 14 12
33 34 35 36 35 34 34 33 32 31 29 27 24 23 22 20 18 16 15 15 14 13 13 13 13 14 14 15 15 15 15 16 16 16 17 16 16 17 16 16 16 14 13 13
33 33 34 37 36 36 36 35 33 32 30 28 27 25 23 22 21 19 17 16 16 15 15 14 15 16 16 16 16 16 17 17 17 17 17 17 16 16 16 17 15 14 14 13
34 34 35 35 36 37 36 36 35 34 32 31 28 26 25 23 22 21 19 18 17 18 18 16 17 17 18 18 17 17 18 19 19 18 18 18 17 17 16 16 15 14 14 14
36 36 36 35 35 36 36 36 35 34 33 32 30 28 26 24 23 22 22 21 20 20 20 19 19 20 20 20 19 19 19 21 20 19 19 19 17 16 16 16 16 15 14 14
37 37 37 35 35 36 36 36 35 35 34 33 31 30 28 26 25 23 23 23 22 22 22 22 22 22 22 22 22 21 21 21 21 21 20 19 17 17 17 16 16 16 15 16
38 38 38 37 36 35 36 36 35 35 35 33 32 32 30 29 28 27 26 26 26 25 25 25 25 24 24 23 24 24 24 23 22 22 22 20 18 17 17 17 17 17 17 17
38 39 39 37 37 36 36 36 36 35 35 34 34 33 32 31 30 30 29 28 28 28 28 27 27 26 25 25 25 25 24 24 24 24 24 21 19 18 18 18 18 18 18 18
39 39 38 37 37 36 36 36 36 36 35 34 34 33 33 33 33 32 32 31 30 31 30 29 28 27 26 26 26 26 26 25 26 26 25 23 21 20 20 20 20 19 19 19
38 38 38 38 37 37 37 37 36 36 35 34 33 33 34 34 34 34 33 33 33 33 32 31 30 28 27 27 27 27 28 28 26 24 23 23 22 21 21 21 21 20 20 20
38 38 38 37 37 36 36 37 37 37 36 36 34 33 34 34 34 34 34 34 33 34 32 32 32 30 29 28 28 29 28 27 25 24 23 22 22 21 22 22 22 22 22 21
37 37 37 37 36 37 37 37 37 37 36 36 35 34 34 34 34 35 34 33 33 33 34 33 32 31 30 29 29 29 28 26 24 23 22 22 21 21 22 23 23 23 23 23
36 36 36 36 36 36 36 36 35 36 36 36 35 35 35 34 34 35 35 34 34 33 34 32 29 29 29 29 28 28 27 25 23 23 23 24 23 23 24 23 23 24 24 24
35 35 36 36 35 35 35 35 35 35 35 36 35 35 34 34 35 35 35 35 34 34 34 33 30 29 29 28 27 26 26 26 26 26 25 25 25 25 25 25 24 25 25 25
34 35 35 36 36 35 34 34 35 35 35 35 35 35 36 36 35 35 35 34 34 33 33 33 31 30 30 29 28 27 28 28 29 28 27 28 28 27 26 26 26 26 26 26
33 34 34 33 34 34 34 33 34 35 36 36 36 35 35 35 34 33 34 33 33 34 34 33 32 31 31 31 30 29 29 29 29 29 29 29 28 28 28 28 28 28 28 28
33 33 32 32 33 33 34 33 33 34 35 35 34 34 33 32 32 33 33 32 33 34 34 33 32 31 31 31 31 31 30 31 31 31 31 31 30 30 30 30 30 30 30 30
32 32 32 32 32 33 34 34 34 33 33 33 34 34 34 34 34 34 33 33 33 34 34 34 33 31 31 31 32 32 32 32 33 33 33 32 32 32 31 31 32 33 33 33
30 30 30 31 32 32 32 33 33 33 32 33 34 35 34 34 34 35 34 33 33 34 34 36 35 34 34 33 34 34 33 33 34 35 35 34 33 33 33 33 34 35 35 34
27 27 27 27 29 30 30 31 32 33 33 33 33 34 35 34 33 33 34 33 33 34 35 35 35 35 35 35 35 34 35 35 35 36 36 36 34 34 34 34 35 35 34 34
26 25 25 25 26 27 29 30 31 32 32 32 31 32 31 30 31 31 32 32 32 33 34 34 34 34 35 36 36 35 36 36 37 37 37 37 36 36 36 36 35 35 34 34
24 24 25 25 26 27 28 28 29 30 30 30 31 31 30 30 31 31 32 31 31 32 32 33 33 35 36 36 36 36 37 37 37 38 37 37 36 36 36 35 35 34 34 34
23 23 23 24 24 25 26 26 26 27 28 29 30 30 29 29 29 30 30 31 31 31 31 31 32 33 33 34 35 35 36 36 36 36 36 35 35 35 35 34 33 34 34 34
21 22 22 22 21 22 24 25 26 26 27 27 28 28 28 29 29 29 29 29 29 29 29 30 30 31 31 32 32 33 34 33 34 33 34 34 34 34 34 33 33 34 34 33
19 19 19 19 19 20 21 23 24 25 26 26 27 27 28 28 28 28 28 28 28 28 28 28 28 29 30 31 31 32 32 33 33 34 34 34 34 34 33 33 32 32 32 32
17 18 18 18 18 18 19 21 23 24 26 26 27 27 27 27 27 28 27 27 27 27 27 27 28 29 29 30 30 30 31 32 33 33 34 34 34 33 32 32 32 32 32 32
16 16 17 17 17 17 18 20 21 22 23 24 24 25 25 25 25 25 26 26 27 27 27 27 28 28 28 28 29 29 30 30 31 32 32 31 31 31 31 31 31 31 31 31

GEFSNGP_500_meanwind_216.txt.gz
Wind_Speed
34 33 32 32 32 33 32 30 28 26 25 24 22 20 20 19 17 17 17 17 17 17 16 15 14 14 14 13 13 13 13 14 14 15 15 15 16 16 17 17 16 15 15 15
34 34 34 34 33 33 33 32 31 29 28 26 25 23 22 21 20 19 20 19 19 19 18 18 17 16 15 15 14 15 15 15 15 16 17 17 16 17 17 18 18 16 16 15
33 34 34 35 35 34 34 33 32 30 29 28 27 26 24 23 22 21 21 21 20 20 19 19 19 18 17 17 17 17 17 16 17 17 17 17 18 19 19 19 18 17 17 16
32 33 34 34 35 35 34 34 33 32 31 30 29 27 26 25 24 23 22 22 23 22 22 21 20 19 19 19 19 19 19 18 18 18 18 19 19 20 21 20 19 18 17 16
33 32 33 35 35 34 35 35 34 33 32 31 30 29 29 27 26 25 25 24 24 24 24 24 23 21 21 21 21 21 21 21 20 20 20 20 21 21 22 21 19 19 18 17
34 33 33 35 34 33 34 36 35 34 33 32 31 30 30 29 28 27 27 27 26 26 26 26 25 24 24 23 23 23 23 22 21 21 20 21 22 22 22 22 21 20 19 18
35 35 35 36 34 33 34 35 34 34 34 33 32 31 30 29 29 28 28 28 27 27 27 27 27 26 26 26 26 25 25 25 24 23 23 23 23 23 22 22 21 21 20 20
36 35 37 37 36 36 36 35 35 34 34 34 34 33 32 31 31 30 29 29 28 28 29 29 29 28 28 28 28 27 27 26 25 25 25 24 24 23 23 22 22 22 21 21
37 37 36 35 35 35 35 35 35 35 35 35 35 35 34 33 33 32 31 31 30 30 31 30 30 30 30 30 30 29 29 28 27 27 26 26 26 26 24 24 24 24 23 23
36 36 36 35 35 35 34 35 35 35 35 35 35 35 36 35 35 34 33 33 32 32 32 31 30 31 31 32 32 31 30 29 29 30 29 28 27 27 26 26 25 24 23 22
35 35 35 35 35 35 35 35 36 36 36 36 35 35 35 35 35 34 34 34 34 34 34 33 33 33 33 34 33 33 32 32 31 31 30 29 29 30 29 27 25 25 24 23
35 34 35 34 34 35 35 34 35 36 36 35 35 35 35 34 35 35 35 34 34 34 34 34 34 34 34 34 34 34 34 33 32 32 31 31 31 30 29 28 27 25 24 24
35 35 35 35 34 35 35 35 35 35 36 36 35 34 34 34 35 35 35 35 35 34 34 34 35 35 34 34 35 34 34 33 33 33 32 32 31 30 28 27 25 24 24 25
35 35 35 35 35 34 35 35 35 36 36 36 36 36 36 35 35 35 34 34 34 35 35 35 35 35 34 34 34 34 34 33 33 33 33 32 31 30 29 29 28 26 26 26
34 34 34 34 34 34 35 35 35 36 36 36 36 36 36 35 35 35 35 34 34 35 35 35 36 35 34 34 35 35 34 34 33 32 31 31 31 30 30 30 29 27 28 28
32 32 32 33 33 34 34 35 35 35 35 35 35 35 35 35 35 35 35 35 35 35 35 35 35 35 34 34 34 34 35 34 33 32 32 30 30 29 29 30 30 29 28 29
31 31 32 32 33 33 34 34 33 33 34 34 34 35 35 35 34 34 34 34 34 35 35 35 35 35 35 35 35 35 35 33 32 30 30 30 29 30 30 31 32 31 30 31
30 30 31 31 31 32 32 32 32 32 32 33 33 34 35 35 35 35 34 34 34 34 34 33 33 33 35 35 35 34 33 33 31 30 30 30 30 30 31 31 31 32 32 33
29 29 30 30 30 30 29 30 31 31 31 32 32 33 33 34 35 35 35 34 34 34 33 33 33 33 34 33 33 33 33 33 32 32 32 31 31 31 32 32 32 33 34 34
27 27 27 28 27 27 27 27 27 28 29 30 30 31 31 32 32 32 33 33 33 33 33 33 33 33 33 33 33 34 33 33 33 32 32 32 31 32 33 33 33 34 34 35
24 24 25 25 25 25 24 24 25 25 26 28 29 29 30 31 31 32 32 32 32 32 33 33 34 34 33 33 33 34 34 34 33 32 32 31 31 31 31 31 32 33 33 33
23 23 23 22 22 22 22 21 22 23 24 25 27 28 29 29 29 29 29 30 31 32 31 31 32 33 33 33 34 34 34 33 32 31 32 32 31 31 31 31 31 32 32 32
21 21 21 21 21 21 20 21 21 22 23 24 25 26 26 27 27 27 27 28 28 29 29 29 31 32 32 33 33 33 33 33 32 31 32 33 32 32 32 32 32 33 33 34
19 19 19 19 20 20 20 21 21 22 23 23 23 23 24 25 25 26 26 26 27 27 28 29 30 31 31 31 31 31 31 31 31 31 32 32 32 32 32 33 33 33 34 33
17 17 17 18 19 20 20 19 19 21 22 23 23 23 24 24 24 25 25 25 26 27 27 28 29 29 29 29 30 30 30 30 30 30 31 31 32 32 33 33 33 34 34 34
14 16 17 17 18 18 19 19 19 20 20 21 22 22 23 23 24 24 24 25 25 26 26 27 28 28 28 28 28 29 29 30 30 30 31 31 31 32 32 33 34 35 35 35
13 14 15 16 17 17 17 18 19 19 19 18 19 20 22 22 23 23 23 23 24 25 25 26 26 26 27 27 28 28 28 29 30 30 31 32 32 32 33 33 34 34 34 34

GEFSNGP_500_meanwind_222.txt.gz
Wind_Speed
32 27 23 24 24 26 27 28 27 24 23 22 23 23 22 22 20 19 19 18 18 18 17 18 19 18 17 17 17 17 17 17 17 18 18 18 19 19 20 20 20 21 21 21
35 31 26 25 25 24 26 28 28 27 25 24 24 25 26 25 22 21 21 21 20 20 19 20 20 20 20 20 20 20 19 18 18 19 19 20 20 21 21 21 21 21 21 22
35 32 29 30 27 26 27 28 28 28 28 29 29 28 28 28 27 25 23 23 23 22 22 22 22 21 21 21 21 20 19 19 20 20 20 21 21 22 22 23 22 22 22 22
34 32 34 31 28 28 29 28 29 30 31 32 32 32 31 29 28 26 26 26 25 24 24 23 23 23 22 22 22 21 21 21 21 21 21 23 23 23 23 23 23 23 23 23
33 32 32 32 31 30 31 32 32 32 33 32 32 32 33 32 29 29 29 29 27 26 26 26 25 24 24 23 23 23 23 23 23 23 23 24 24 24 24 23 24 24 24 24
35 33 31 32 31 32 32 35 35 35 35 34 34 34 36 36 33 32 31 30 28 28 28 28 27 26 26 25 24 24 24 24 24 24 25 25 25 25 25 25 25 25 25 25
34 33 33 32 31 31 32 35 34 34 35 36 36 36 36 36 36 34 32 31 30 29 30 29 29 29 28 28 27 27 27 26 26 26 26 26 27 26 26 27 27 27 27 26
35 34 33 33 33 35 35 34 34 35 35 35 36 36 37 37 36 34 33 32 32 31 31 31 30 30 30 31 30 30 30 29 28 28 28 28 28 28 28 28 29 29 28 27
35 36 36 36 37 37 37 36 35 35 35 35 36 36 37 37 36 35 35 33 33 32 32 32 32 32 32 32 32 32 32 31 31 31 30 30 30 30 29 29 29 29 28 27
38 38 37 36 37 36 37 37 37 36 36 36 36 36 36 36 36 35 35 35 34 35 35 35 34 34 32 32 33 33 33 33 33 32 32 32 32 32 31 31 31 30 29 28
39 38 37 36 37 37 37 38 37 36 37 37 37 37 37 37 37 36 36 36 37 37 36 35 35 35 33 33 33 34 34 34 33 33 33 33 33 33 32 31 31 31 31 31
40 40 39 39 39 37 38 37 37 36 36 35 36 37 36 37 37 37 37 37 37 37 36 36 35 35 35 35 35 35 34 34 34 34 35 34 34 33 32 32 32 32 32 32
40 40 40 39 38 38 38 38 37 37 36 36 37 37 36 36 36 36 36 37 38 37 37 37 36 36 36 35 35 35 35 35 35 35 35 35 35 34 33 33 33 33 32 32
38 38 38 40 39 38 38 38 38 37 37 37 38 38 37 36 36 35 36 36 37 37 37 37 37 36 36 36 35 35 35 35 35 35 35 35 34 34 34 34 33 33 32 32
36 36 37 38 38 38 38 38 38 37 37 37 38 38 38 38 37 37 36 36 36 36 36 37 37 37 37 37 37 36 36 36 36 35 35 34 34 35 34 34 34 34 33 32
34 36 36 36 36 37 38 38 37 37 37 37 37 38 38 38 37 37 37 37 37 36 37 37 37 37 37 37 37 36 36 36 36 36 35 35 34 35 35 34 34 34 34 33
34 34 35 35 35 36 36 36 36 36 36 35 36 37 37 37 37 37 37 36 36 36 36 36 36 36 35 36 36 37 37 37 37 37 36 35 35 35 35 35 35 34 34 34
33 34 34 34 34 34 34 34 35 35 35 34 34 34 35 36 36 35 35 34 35 35 35 36 35 35 35 35 35 35 35 36 36 35 35 35 35 35 36 37 36 34 34 34
32 32 33 33 33 33 34 34 35 34 34 34 34 34 34 34 34 35 35 35 35 35 35 35 35 35 34 34 34 35 35 36 36 36 36 36 35 36 36 37 36 35 35 34
29 30 30 31 32 33 33 32 33 33 33 33 33 33 33 33 33 33 33 33 33 33 33 33 32 32 32 32 33 34 35 36 36 35 36 36 35 35 35 35 36 35 35 34
26 27 28 29 30 30 30 31 31 32 32 32 31 31 30 30 30 31 31 32 31 32 31 31 31 31 31 31 32 33 33 34 33 33 33 32 33 33 33 33 33 32 32 33
24 24 25 26 27 27 28 27 27 27 27 28 28 28 28 28 28 29 30 31 30 31 31 30 30 29 29 30 31 31 31 31 31 31 31 31 32 32 31 32 32 31 32 32
21 22 22 23 23 23 24 23 24 24 24 24 24 25 26 26 26 26 27 28 29 29 29 29 30 30 30 30 30 30 30 30 31 31 31 31 31 31 31 32 32 31 32 32
19 19 19 19 19 19 20 21 21 22 22 22 23 22 22 23 23 24 25 27 27 28 28 29 29 29 29 29 29 29 29 29 30 30 31 31 32 32 32 31 31 31 31 31
18 18 18 18 18 17 17 17 19 20 20 20 20 21 22 22 23 23 24 25 25 25 26 26 27 27 27 27 27 28 28 28 29 29 30 31 31 31 31 31 31 31 31 32
16 16 17 16 16 16 16 17 18 18 17 17 18 19 20 20 21 22 23 22 22 23 23 23 24 24 25 26 26 26 26 27 27 28 29 30 29 29 30 31 31 31 31 31
13 14 15 15 15 16 16 16 17 16 16 16 16 17 17 18 19 19 19 19 20 21 21 22 23 23 24 25 25 26 27 27 27 28 28 29 29 30 30 30 30 30 31 31

GEFSNGP_500_meanwind_228.txt.gz
Wind_Speed
34 32 31 32 32 32 31 30 30 28 26 23 21 21 20 19 17 17 17 17 15 15 14 13 13 13 13 13 13 13 13 14 14 14 14 14 15 15 16 16 16 16 16 16
35 34 34 33 32 33 33 32 31 29 28 25 23 22 22 22 20 20 20 18 17 17 16 14 14 14 15 15 15 15 15 15 15 15 16 16 17 17 17 17 18 18 18 18
36 35 34 35 33 33 34 34 33 32 30 27 26 25 23 23 21 21 20 20 19 18 18 17 17 17 17 18 18 18 17 17 17 17 18 18 19 18 18 18 19 19 19 19
37 37 38 35 34 34 34 34 34 32 32 30 28 27 26 25 24 23 22 22 21 21 22 21 20 20 20 21 21 20 20 20 20 20 20 20 20 20 20 20 20 21 20 20
36 38 38 36 35 35 36 35 34 34 33 32 31 29 28 27 26 25 25 24 24 23 23 23 23 23 23 23 23 23 23 23 23 23 22 22 22 22 21 21 22 23 22 22
36 37 39 36 35 35 36 37 36 36 35 34 33 31 30 29 29 28 27 27 27 26 26 27 27 26 26 26 27 26 26 26 26 25 25 24 23 24 24 24 24 24 24 24
37 38 39 37 36 36 38 38 36 36 36 35 35 34 33 33 32 30 30 30 30 30 30 30 30 30 30 30 29 29 29 28 28 28 27 27 26 25 26 26 25 26 26 26
38 39 39 37 37 39 39 38 37 37 36 36 36 35 36 36 35 33 33 33 33 34 33 32 32 33 32 32 31 31 31 30 29 29 29 28 28 28 28 28 28 27 27 27
39 38 37 37 38 39 39 38 37 38 38 39 39 38 37 36 36 35 34 34 35 35 35 34 34 34 33 33 33 32 32 31 31 30 30 30 30 30 29 29 29 29 29 29
38 38 37 36 36 37 37 38 38 38 38 39 39 38 38 36 35 35 35 36 35 35 35 35 35 34 34 34 33 33 32 32 32 32 32 31 30 30 30 30 30 30 30 30
37 37 36 35 35 35 36 36 36 36 37 37 38 39 39 40 38 36 36 36 36 36 37 36 35 35 34 34 34 34 33 33 33 33 31 31 31 32 32 32 31 31 32 31
37 36 36 35 35 35 35 35 36 36 36 37 37 37 37 38 39 39 38 37 37 37 36 37 36 35 34 35 34 34 33 33 32 32 32 32 32 32 32 33 33 33 33 32
36 36 36 36 35 35 35 37 37 37 37 38 38 38 37 37 38 39 39 38 38 38 37 37 36 35 35 35 35 34 33 32 31 32 32 32 32 32 32 32 32 33 33 33
35 36 36 36 36 36 37 37 37 37 37 38 38 38 38 38 38 38 38 38 38 38 38 37 36 35 35 35 34 34 33 32 33 33 33 33 33 33 33 33 32 32 33 33
34 35 36 36 37 37 38 38 38 38 38 38 39 39 39 39 39 39 39 39 39 38 38 37 36 36 36 35 35 35 34 34 34 34 34 33 33 34 34 34 33 33 33 33
33 34 35 35 36 36 37 38 36 36 38 38 38 38 39 39 39 39 39 39 38 37 37 37 36 36 36 36 36 36 35 34 34 34 33 33 33 34 34 34 33 33 33 34
30 30 32 34 36 36 35 36 36 36 37 37 37 37 38 38 38 38 37 37 37 37 37 36 35 35 36 36 36 36 35 35 34 34 34 34 34 34 35 35 34 34 34 34
29 29 30 32 33 34 34 35 36 36 36 35 34 35 36 36 37 37 36 37 36 36 35 34 34 34 34 35 36 36 35 35 36 35 34 33 34 34 35 35 34 34 34 35
28 28 29 31 32 33 33 34 34 35 34 32 32 33 34 34 35 36 36 35 33 33 33 33 33 33 33 33 33 34 34 35 34 33 32 33 33 33 33 33 34 34 35 35
25 26 28 29 30 31 31 32 33 34 33 32 31 31 31 32 33 33 33 33 33 32 32 32 32 33 32 32 32 31 32 33 33 33 32 32 33 33 33 33 33 34 34 34
24 24 25 27 29 30 30 30 31 30 30 30 30 29 29 30 30 29 30 31 30 30 30 30 30 31 30 30 30 30 30 30 31 31 31 32 32 32 32 32 32 33 34 34
23 23 24 25 26 27 27 26 27 28 28 29 29 29 29 27 25 26 26 27 26 27 28 29 29 29 29 28 28 28 28 29 29 29 30 30 31 31 32 32 32 32 33 33
21 22 23 24 24 25 26 24 24 25 25 25 25 26 25 24 23 23 23 23 24 25 27 28 28 28 28 27 27 27 28 28 29 29 29 29 30 30 30 30 30 30 30 31
20 20 21 21 21 21 22 21 21 21 21 22 22 22 22 21 21 21 21 22 23 24 25 25 25 26 26 26 26 26 27 27 27 27 28 28 28 28 28 28 28 28 28 29
17 17 17 18 18 18 18 18 17 17 17 17 17 17 17 17 18 19 20 20 21 22 23 23 23 24 24 25 25 25 26 26 26 26 26 27 27 27 27 27 28 28 28 28
13 14 14 14 15 15 14 15 15 15 15 16 15 15 15 16 17 18 19 19 20 21 21 22 22 23 24 24 24 24 24 25 25 25 26 26 26 27 27 27 27 27 27 27
11 11 11 11 11 11 12 13 14 14 14 13 13 14 14 15 17 17 18 19 19 19 20 21 21 21 22 23 23 23 23 23 24 24 24 25 25 26 26 26 26 26 27 26

GEFSNGP_500_meanwind_234.txt.gz
Wind_Speed
33 32 32 32 31 32 33 33 32 30 28 26 24 23 22 21 20 18 17 17 16 16 15 15 15 15 15 15 15 15 15 16 16 17 17 17 16 16 17 17 17 17 17 17
35 34 33 34 32 31 33 34 33 31 30 28 26 25 24 22 20 20 18 18 18 18 18 18 17 16 17 17 16 16 17 18 19 18 18 18 18 18 18 19 19 19 18 19
37 36 35 37 34 33 34 34 34 33 31 29 28 27 25 23 22 20 19 18 19 20 21 21 20 19 18 19 19 19 19 20 21 21 21 21 21 21 20 20 20 20 21 21
38 37 37 35 35 34 34 34 33 32 31 31 29 27 27 26 25 22 22 22 22 21 22 22 21 21 21 22 22 22 22 23 23 23 23 23 23 23 23 23 22 22 22 22
40 39 38 37 35 34 34 34 32 32 31 30 30 29 28 27 27 26 25 25 25 24 23 23 23 23 23 24 24 25 25 24 25 25 26 25 25 26 26 25 24 24 24 23
41 40 40 37 36 36 36 36 34 33 32 31 30 30 28 28 29 28 28 28 27 27 26 26 26 27 27 28 28 27 27 27 27 28 28 27 28 28 27 26 26 26 26 26
41 41 39 37 37 37 37 35 33 33 32 32 31 30 29 30 30 30 30 30 30 30 30 29 28 29 29 30 30 30 29 29 29 29 29 29 30 29 28 28 28 27 27 27
39 40 39 37 37 37 36 34 33 32 32 33 32 31 30 30 31 31 31 31 31 31 31 31 31 31 31 32 31 31 30 30 31 31 31 31 32 31 30 29 29 29 30 29
39 39 38 37 37 36 35 35 34 33 33 33 33 32 31 31 31 32 32 32 33 34 33 33 33 33 33 33 32 32 31 32 32 33 33 33 33 32 32 32 32 31 31 31
38 38 37 36 36 36 36 36 35 34 33 33 33 33 33 33 33 33 33 34 34 35 36 35 35 35 34 34 34 33 33 34 34 34 35 34 33 32 32 32 33 32 32 32
37 37 37 36 35 35 35 35 36 36 35 34 34 34 35 35 35 35 35 36 36 36 37 36 36 36 35 35 35 35 35 36 36 36 36 35 34 34 34 33 33 33 33 34
35 35 35 35 35 35 35 35 35 35 36 36 36 37 37 38 38 38 37 37 37 38 39 39 38 37 36 37 37 36 36 36 36 36 35 34 34 33 34 33 33 34 34 33
34 34 35 34 34 35 35 35 35 35 35 36 37 37 37 37 37 37 38 38 39 39 39 38 38 38 37 37 37 37 37 36 36 36 35 35 35 35 35 35 35 35 35 34
34 34 33 33 33 33 33 34 34 35 35 36 37 37 38 38 37 37 37 38 38 37 36 37 38 38 38 39 39 39 38 38 37 36 36 36 35 35 36 35 35 36 35 35
33 33 33 32 32 32 33 33 34 35 36 36 37 38 38 38 38 38 38 38 38 39 39 39 39 39 39 39 38 39 39 38 37 36 36 36 36 36 36 35 36 36 35 35
32 32 32 32 32 31 32 32 33 34 35 36 37 38 38 38 38 38 38 39 39 39 39 39 40 39 40 40 40 39 39 38 37 36 36 36 37 36 35 35 35 35 35 35
30 31 30 30 30 30 29 30 31 32 34 36 37 37 37 37 37 38 38 39 39 39 39 40 40 40 40 40 40 39 38 38 37 37 37 36 36 36 36 36 36 36 36 35
29 30 30 30 30 30 30 30 31 33 34 35 36 37 36 37 37 38 38 38 39 39 39 38 38 38 39 39 39 38 37 37 37 37 37 36 36 36 36 36 36 36 36 36
30 30 30 30 30 30 30 31 32 33 34 35 35 35 36 36 36 36 37 37 37 37 37 36 35 35 36 36 36 36 36 36 36 36 36 36 36 36 36 36 36 36 36 36
26 27 28 30 30 30 31 31 31 32 33 34 35 36 36 36 36 35 36 36 35 35 34 33 33 33 33 34 34 35 35 35 35 35 35 35 35 35 36 36 36 35 35 34
24 25 26 28 29 29 30 30 31 32 32 32 33 34 34 34 33 34 34 33 32 31 30 30 31 32 32 32 33 33 34 34 34 34 34 34 35 34 34 34 34 34 34 33
23 24 25 26 27 28 28 28 29 29 29 29 30 31 32 32 32 32 31 31 28 27 27 29 30 31 31 30 30 31 31 32 32 32 33 32 31 32 33 32 32 32 32 32
22 23 23 23 24 25 25 25 24 25 25 25 25 26 27 28 28 27 27 27 25 25 25 26 28 29 29 28 28 28 29 29 30 30 30 30 30 30 30 31 31 31 30 30
21 21 21 21 21 22 22 22 21 21 21 20 21 22 23 23 22 22 22 21 22 23 24 24 25 25 26 26 26 26 26 26 27 28 28 29 29 29 28 28 29 29 29 29
18 19 19 20 19 19 19 19 19 19 18 18 18 18 18 18 17 17 17 18 19 20 22 22 22 23 23 23 24 24 24 25 25 27 27 28 28 28 28 29 29 29 29 29
17 17 17 17 16 15 16 16 16 16 16 15 14 14 14 14 14 15 16 17 18 19 19 21 22 22 22 22 22 22 23 24 25 26 26 26 27 27 27 27 27 27 28 28
13 14 14 15 15 15 15 14 14 14 14 13 13 13 13 13 14 15 16 16 17 17 18 19 19 20 20 21 21 22 23 23 24 25 25 26 26 26 26 26 26 27 27 27

GEFSNGP_500_meanwind_240.txt.gz
Wind_Speed
33 32 32 33 32 32 32 30 28 26 24 23 21 21 21 21 20 20 18 17 17 17 17 18 17 16 16 16 16 17 16 16 16 17 18 18 18 18 17 17 17 17 18 18
34 33 33 33 33 33 33 32 31 29 27 25 23 22 22 22 22 21 21 20 19 19 20 20 19 19 19 19 19 19 19 19 19 19 20 20 20 20 19 19 19 19 19 19
34 34 34 35 34 33 33 32 31 30 28 26 25 25 24 24 23 23 23 22 22 21 21 21 22 22 21 21 21 21 22 22 22 22 22 22 21 22 21 21 21 20 20 20
35 36 36 35 34 33 33 33 32 31 29 29 28 27 26 25 25 24 23 23 23 22 23 23 23 24 23 24 24 24 25 25 25 25 24 24 24 24 24 23 22 22 21 21
37 37 37 38 35 34 34 34 33 32 31 30 30 29 28 27 27 25 25 25 25 25 25 25 25 26 27 27 27 27 27 28 27 28 28 27 27 27 26 25 24 24 24 24
40 38 37 37 37 35 35 36 34 33 32 32 31 31 29 28 28 27 27 27 27 27 27 27 27 28 29 29 29 30 30 30 30 30 30 30 30 29 28 28 27 27 26 26
40 40 39 39 36 35 36 36 34 33 32 32 31 31 29 29 29 29 30 29 28 29 29 28 28 29 30 31 31 31 31 31 31 31 31 31 30 30 30 30 29 29 28 27
40 40 40 39 37 37 36 35 33 33 33 33 33 32 31 30 31 30 31 31 31 31 31 31 31 32 32 33 32 32 32 33 33 33 33 32 32 31 31 31 31 30 30 29
40 39 39 38 37 37 36 36 35 34 33 34 33 33 32 32 32 32 32 32 33 32 33 33 33 33 33 33 34 34 33 33 34 34 34 33 33 33 34 34 33 32 32 32
39 38 38 37 36 36 35 34 34 34 33 33 32 32 33 34 34 34 34 34 35 34 34 34 35 34 34 34 35 34 34 34 34 35 35 35 36 37 36 34 33 34 34 34
38 38 37 37 35 34 34 34 33 33 33 33 33 33 34 34 35 36 36 36 36 36 36 36 35 35 36 37 36 34 34 35 36 36 37 37 36 36 35 35 35 35 35 35
37 36 36 36 35 34 33 33 33 33 33 33 33 34 35 35 35 36 36 37 37 37 36 36 37 36 36 36 36 35 36 37 37 37 38 37 36 36 36 35 35 36 36 35
35 34 33 32 32 32 32 32 32 32 33 33 33 34 34 35 35 35 36 36 37 37 36 36 37 38 37 36 36 37 37 38 38 39 37 36 36 36 36 36 36 36 35 35
32 32 32 31 31 32 31 31 31 31 32 32 33 33 33 34 35 36 36 37 37 37 37 36 36 37 37 36 36 37 38 38 38 39 38 37 37 37 36 36 36 36 35 35
30 30 30 30 30 30 30 31 31 32 32 33 33 34 34 35 35 36 37 37 37 37 37 37 37 37 37 37 38 38 38 38 38 38 38 37 38 37 37 36 36 36 35 34
31 31 30 30 30 30 31 31 32 32 32 32 33 33 33 34 35 36 36 36 37 37 37 37 37 37 37 38 39 39 40 39 39 39 39 38 37 36 36 35 35 35 35 34
31 31 31 30 30 30 31 32 31 32 31 31 31 32 33 33 34 34 35 35 35 36 36 37 37 38 38 39 39 40 40 40 40 40 39 38 36 36 36 36 35 35 35 35
29 29 30 29 29 29 30 31 30 30 30 30 30 30 31 32 32 32 33 34 35 35 36 37 38 38 39 40 40 39 39 40 40 38 37 36 36 36 35 35 35 36 36 36
28 28 28 29 28 28 28 29 29 30 29 29 29 30 30 31 32 32 33 34 35 36 36 37 38 38 39 38 38 38 38 38 38 36 36 36 36 35 35 35 36 36 36 36
26 26 26 27 27 27 27 26 27 28 28 28 29 29 30 30 31 31 32 33 34 34 35 36 36 36 36 36 36 36 36 35 34 34 34 34 34 35 35 35 35 36 36 35
24 24 25 25 25 25 26 26 26 26 27 27 28 28 29 29 29 30 31 32 32 33 33 33 33 34 34 34 34 33 33 33 32 32 32 32 33 33 34 34 34 34 34 33
22 22 23 23 23 23 24 25 25 26 26 27 28 28 28 28 29 29 29 29 30 30 30 30 30 30 30 31 31 30 30 30 30 30 30 31 31 32 32 32 31 31 32 32
19 20 20 21 21 21 22 23 24 25 25 26 27 27 27 26 26 26 26 27 27 27 27 27 27 27 28 27 27 27 28 28 28 28 28 29 30 30 30 30 31 31 32 32
15 16 17 18 19 20 20 22 23 24 24 24 25 25 25 25 25 24 24 24 24 24 24 24 24 24 24 25 25 26 26 27 27 27 28 28 29 29 29 30 30 31 30 30
13 14 16 17 17 18 18 19 20 21 22 22 22 22 21 21 21 21 21 21 21 21 21 21 22 23 23 23 24 24 25 25 25 26 26 27 27 28 28 28 29 29 29 29
11 12 13 14 15 15 15 16 17 18 19 20 21 19 18 18 18 18 18 19 19 19 19 20 21 22 23 23 23 23 23 23 24 24 25 25 26 26 27 28 28 27 27 28
10 11 11 12 12 13 13 13 15 16 16 16 16 15 15 14 14 14 15 15 16 17 18 19 20 21 21 21 22 22 22 22 23 23 24 24 25 25 25 25 25 25 25 26